Home   Weather   Siem Reap   Past weeks
Flag for Cambodia

Past Weather in Siem Reap, Cambodia — Yesterday and Last 2 Weeks

Now
88 °F

Scattered clouds.


Feels Like: 102 °F
Forecast: 92 / 78 °F
Wind: 5 mph from South

Location: Siemreap

Current Time: Jul 18, 2019 at 12:10:07 pm

Latest Report: Jul 18, 2019 at 11:00 am


Visibility: N/A

Pressure: 29.65 "Hg

Humidity: 75%

Dew Point: 79 °F

Location of Siem ReapLocation

Past Weather in Siem Reap — Graph

°F

Siem Reap Temperature Yesterday

Maximum temperature yesterday: 95 °F (at 1:30 pm)
Minimum temperature yesterday: 73 °F (at 4:00 pm)
Average temperature yesterday: 83 °F

High & Low Weather Summary for the Past Weeks

 TemperatureHumidityPressure
High97 °F (Jul 13, 3:30 pm)100% (Jul 3, 10:00 am)29.83 "Hg (Jul 3, 10:00 am)
Low73 °F (Jul 5, 2:30 pm)37% (Jul 16, 4:00 pm)29.53 "Hg (Jul 16, 4:00 pm)
Average84 °F76%29.71 "Hg
* Reported Jul 3 10:00 am — Jul 18 10:30 am, Siem Reap. Weather by CustomWeather, © 2019

Note: Actual official high and low records may vary slightly from our data, if they occured in-between our weather recording intervals... More about our weather records

Advertising

Siem Reap Weather History for the Previous 24 Hours

Scroll right to see more
 ConditionsComfort  
Time TempWeatherWind HumidityBarometerVisibility
10:30 am
Thu, Jul 18
86 °FScattered clouds.N/A79%29.65 "HgN/A
10:00 am86 °FScattered clouds.5 mph79%29.65 "HgN/A
9:30 am84 °FScattered clouds.5 mph84%29.65 "HgN/A
9:00 am84 °FScattered clouds.3 mph84%29.65 "HgN/A
8:30 am82 °FScattered clouds.3 mph94%29.65 "HgN/A
8:00 am81 °FScattered clouds.3 mph100%29.65 "HgN/A
7:30 am81 °FScattered clouds.5 mph100%29.65 "HgN/A
7:00 am79 °FScattered clouds.2 mph100%29.65 "HgN/A
6:30 am77 °FScattered clouds.3 mph100%29.65 "HgN/A
6:00 am77 °FScattered clouds.3 mph100%29.62 "HgN/A
5:30 am77 °FPassing clouds.3 mph100%29.62 "Hg6 mi
5:00 am77 °FPassing clouds.5 mph100%29.62 "Hg6 mi
4:30 am77 °FPassing clouds.3 mph100%29.62 "Hg6 mi
4:00 am77 °FPassing clouds.3 mph100%29.62 "Hg6 mi
3:30 am77 °FPassing clouds.2 mph100%29.59 "Hg6 mi
3:00 am77 °FPassing clouds.2 mph100%29.62 "Hg6 mi
2:30 am77 °FPassing clouds.2 mph100%29.62 "Hg6 mi
2:00 am79 °FPassing clouds.3 mph100%29.62 "Hg6 mi
1:30 am79 °FPartly cloudy.3 mph100%29.62 "Hg6 mi
1:00 am79 °FPartly cloudy.5 mph100%29.65 "Hg5 mi
12:30 am79 °FPartly cloudy.3 mph100%29.68 "Hg5 mi
12:00 am79 °FPartly cloudy.3 mph100%29.68 "Hg5 mi
11:30 pm
Wed, Jul 17
79 °FPartly cloudy.2 mph100%29.68 "Hg5 mi
11:00 pm79 °FPartly cloudy.2 mph100%29.68 "Hg5 mi
10:30 pm79 °FPartly cloudy.5 mph100%29.68 "Hg5 mi
10:00 pm79 °FPartly cloudy.5 mph100%29.65 "Hg5 mi
9:30 pm79 °FLight rain. Passing clouds.5 mph100%29.65 "Hg5 mi
9:00 pm81 °FLight rain. Passing clouds.6 mph100%29.65 "Hg4 mi
8:30 pm81 °FLight rain. Passing clouds.5 mph100%29.65 "Hg4 mi
8:00 pm81 °FLight rain. Passing clouds.3 mph100%29.62 "Hg4 mi
7:30 pm81 °FPassing clouds.5 mph100%29.62 "Hg5 mi
7:00 pm81 °FPassing clouds.3 mph100%N/A5 mi
6:30 pm81 °FScattered clouds.3 mph100%N/A5 mi
6:00 pm81 °FScattered clouds.6 mph100%N/A5 mi
5:30 pm79 °FScattered clouds.5 mph100%N/A5 mi
5:00 pm75 °FScattered clouds.6 mph100%N/A5 mi
4:30 pm73 °FThunderstorms. Scattered clouds.13 mph100%N/A5 mi
4:00 pm73 °FStrong thunderstorms. Scattered clouds.25 mph100%N/A1 mi
3:30 pm82 °FScattered clouds.14 mph74%N/AN/A
3:00 pm93 °FScattered clouds.10 mph47%29.53 "HgN/A
2:30 pm93 °FScattered clouds.9 mph47%29.56 "HgN/A
2:00 pm95 °FScattered clouds.9 mph44%29.56 "HgN/A
1:30 pm95 °FScattered clouds.8 mph44%29.59 "HgN/A
1:00 pm93 °FScattered clouds.6 mph49%29.59 "HgN/A
12:30 pm93 °FScattered clouds.7 mph49%29.62 "HgN/A
12:00 pm91 °FScattered clouds.7 mph52%29.62 "HgN/A
Weather by CustomWeather, © 2019

See weather overview